KC3ROS Weather Reports


Display with metric or nautical units.
time (UTC)temp
F
wind
direction
speed
MPH
gust
MPH
rain 1hr
in
rain 24hr
in
rain mn
in
humidity
%
barometer
mb
20260905125309 67 5 0.0 2.0 0.00 0.00 0.00 99 1014.3
20260905124805 67 40 1.0 2.0 0.00 0.00 0.00 99 1014.4
20260905124301 67 348 0.0 2.0 0.00 0.00 0.00 99 1014.3
20260905123756 67 336 0.0 2.0 0.00 0.00 0.00 99 1014.4
20260905123253 67 30 0.0 1.0 0.00 0.00 0.00 99 1014.4
20260905122752 67 301 0.0 2.0 0.00 0.00 0.00 99 1014.4
20260905122251 66 310 0.0 1.0 0.00 0.00 0.00 99 1014.5
20260905121747 66 37 0.0 2.0 0.00 0.00 0.00 99 1014.3
20260905121244 66 0 1.0 3.0 0.00 0.00 0.00 99 1014.2
20260905120742 66 37 0.0 2.0 0.00 0.00 0.00 99 1014.5
20260905120237 66 34 1.0 2.0 0.00 0.00 0.00 99 1014.2
20260905115731 66 13 0.0 2.0 0.00 0.00 0.00 99 1014.3
20260905115226 66 50 0.0 2.0 0.00 0.00 0.00 99 1014.4
20260905114720 66 282 0.0 3.0 0.00 0.00 0.00 99 1014.3
20260905114218 66 266 1.0 3.0 0.00 0.00 0.00 99 1014.2
20260905113713 66 9 0.0 3.0 0.00 0.00 0.00 99 1014.0
20260905113209 66 344 1.0 3.0 0.00 0.00 0.00 99 1013.9
20260905112708 66 353 3.0 3.0 0.00 0.00 0.00 99 1014.0
20260905112203 66 335 3.0 4.0 0.00 0.00 0.00 99 1014.2
20260905111658 66 4 2.0 3.0 0.00 0.00 0.00 99 1013.9
20260905111157 66 6 2.0 3.0 0.00 0.00 0.00 99 1013.8
20260905110656 66 4 2.0 3.0 0.00 0.00 0.00 99 1013.8
20260905110152 66 4 2.0 3.0 0.00 0.00 0.00 99 1013.9
20260905105647 66 1 2.0 3.0 0.00 0.00 0.00 99 1014.2
20260905105146 66 6 2.0 3.0 0.00 0.00 0.00 99 1013.8
20260905104641 66 8 2.0 3.0 0.00 0.00 0.00 99 1013.8
20260905104137 66 9 2.0 3.0 0.00 0.00 0.00 99 1013.8
20260905103632 66 16 1.0 3.0 0.00 0.00 0.00 99 1014.0
20260905103128 67 13 2.0 2.0 0.00 0.00 0.00 99 1013.7
20260905102623 67 6 1.0 3.0 0.00 0.00 0.00 99 1013.7
20260905102120 67 11 2.0 3.0 0.00 0.00 0.00 99 1013.6
20260905101618 67 22 1.0 3.0 0.00 0.00 0.00 99 1013.6
20260905101116 67 17 2.0 3.0 0.00 0.00 0.00 99 1013.6
20260905100613 67 7 2.0 3.0 0.00 0.00 0.00 99 1013.4
20260905100108 67 17 1.0 2.0 0.00 0.00 0.00 99 1013.3
20260905095601 67 11 1.0 3.0 0.00 0.00 0.00 99 1012.9
20260905095057 67 13 1.0 3.0 0.00 0.00 0.00 99 1013.2
20260905094551 67 358 3.0 3.0 0.00 0.00 0.00 99 1013.0
20260905094050 67 11 2.0 3.0 0.00 0.00 0.00 99 1013.0
20260905093545 67 8 2.0 3.0 0.00 0.00 0.00 99 1012.9
20260905093042 67 12 2.0 3.0 0.00 0.00 0.00 99 1013.0
20260905092541 67 14 2.0 3.0 0.00 0.00 0.00 99 1013.1
20260905092037 67 14 2.0 2.0 0.00 0.00 0.00 99 1013.2
20260905091531 67 1 2.0 3.0 0.00 0.00 0.00 99 1013.1
20260905091031 67 25 1.0 3.0 0.00 0.00 0.00 99 1013.1
20260905090525 67 18 0.0 2.0 0.00 0.00 0.00 99 1013.0
20260905090021 67 19 2.0 3.0 0.00 0.00 0.00 99 1012.9
20260905085519 67 38 2.0 3.0 0.00 0.00 0.00 99 1013.1
20260905085015 67 15 0.0 1.0 0.00 0.00 0.00 99 1013.1
20260905084515 67 75 0.0 1.0 0.00 0.00 0.00 99 1013.1
20260905084009 68 104 0.0 0.0 0.00 0.00 0.00 99 1012.9
20260905083504 68 242 0.0 1.0 0.00 0.00 0.00 99 1013.1
20260905083001 68 309 0.0 0.0 0.00 0.00 0.00 99 1013.2
20260905082456 68 22 0.0 2.0 0.00 0.00 0.00 99 1013.1
20260905081951 69 37 0.0 1.0 0.00 0.00 0.00 99 1013.2
20260905081446 68 317 1.0 2.0 0.00 0.00 0.00 99 1013.4
20260905080945 68 27 0.0 2.0 0.00 0.00 0.00 99 1013.1
20260905080440 68 0 2.0 2.0 0.00 0.00 0.00 99 1013.1
20260905075939 68 15 2.0 2.0 0.00 0.00 0.00 99 1013.0
20260905075434 68 11 1.0 3.0 0.00 0.00 0.00 99 1013.2
20260905074932 68 23 0.0 2.0 0.00 0.00 0.00 99 1013.0
20260905074428 68 36 1.0 3.0 0.00 0.00 0.00 99 1013.2
20260905073924 68 24 1.0 2.0 0.00 0.00 0.00 99 1013.3
20260905073418 68 351 0.0 1.0 0.00 0.00 0.00 99 1013.3
20260905072914 68 351 0.0 1.0 0.00 0.00 0.00 99 1013.1
20260905072409 68 345 0.0 1.0 0.00 0.00 0.00 99 1013.3
20260905071859 68 25 0.0 1.0 0.00 0.00 0.00 99 1013.5
20260905071356 68 29 0.0 1.0 0.00 0.00 0.00 99 1013.5
20260905070855 68 7 0.0 1.0 0.00 0.00 0.00 99 1013.7
20260905070351 68 50 0.0 1.0 0.00 0.00 0.00 99 1013.5
20260905065851 68 55 0.0 0.0 0.00 0.00 0.00 99 1013.6
20260905065348 69 7 0.0 1.0 0.00 0.00 0.00 99 1013.8
20260905064839 69 329 0.0 1.0 0.00 0.00 0.00 99 1013.8
20260905064334 69 37 0.0 0.0 0.00 0.00 0.00 99 1014.2
20260905063832 69 50 0.0 0.0 0.00 0.00 0.00 99 1014.3
20260905063329 69 185 0.0 2.0 0.00 0.00 0.00 99 1014.2
20260905062825 69 205 0.0 4.0 0.00 0.00 0.00 99 1014.3
20260905062319 69 253 2.0 4.0 0.00 0.00 0.00 99 1014.4
20260905061814 69 255 2.0 3.0 0.00 0.00 0.00 99 1014.3
20260905061314 70 217 0.0 1.0 0.00 0.00 0.00 99 1014.2
20260905060808 70 255 0.0 1.0 0.00 0.00 0.00 99 1014.3
20260905060305 70 242 0.0 1.0 0.00 0.00 0.00 99 1014.4
20260905055804 70 259 1.0 2.0 0.00 0.00 0.00 99 1014.5
20260905055259 70 172 0.0 2.0 0.00 0.00 0.00 99 1014.5
20260905054753 69 195 0.0 0.0 0.00 0.00 0.00 99 1014.6
20260905054250 69 304 0.0 1.0 0.00 0.00 0.00 99 1014.5
20260905053749 69 244 0.0 1.0 0.00 0.00 0.00 99 1014.9
20260905053244 69 224 0.0 2.0 0.00 0.00 0.00 99 1014.9
20260905052744 69 309 0.0 0.0 0.00 0.00 0.00 99 1014.7
20260905052239 69 269 0.0 0.0 0.00 0.00 0.00 99 1015.1
20260905051738 69 255 0.0 1.0 0.00 0.00 0.00 99 1014.9
20260905051235 69 251 2.0 2.0 0.00 0.00 0.00 99 1014.9
20260905050732 69 258 1.0 3.0 0.00 0.00 0.00 99 1014.8
20260905050228 69 229 0.0 1.0 0.00 0.00 0.00 99 1014.6
20260905045728 70 186 0.0 1.0 0.00 0.00 0.00 99 1014.8
20260905045223 70 230 0.0 1.0 0.00 0.00 0.00 99 1014.9
20260905044718 70 309 0.0 0.0 0.00 0.00 0.00 99 1014.7
20260905044213 70 255 0.0 2.0 0.00 0.00 0.00 99 1014.6
20260905043712 70 257 2.0 3.0 0.00 0.00 0.00 99 1014.7
20260905043207 70 247 2.0 3.0 0.00 0.00 0.00 99 1014.7
20260905042701 70 252 2.0 3.0 0.00 0.00 0.00 99 1014.7
20260905042201 70 247 0.0 3.0 0.00 0.00 0.00 99 1014.7
20260905041656 70 264 1.0 2.0 0.00 0.00 0.00 99 1014.5
20260905041151 71 269 0.0 2.0 0.00 0.00 0.00 99 1014.5
20260905040646 70 237 0.0 1.0 0.00 0.00 0.00 99 1014.5
20260905040145 71 269 0.0 2.0 0.00 0.00 0.00 99 1014.4
20260905035640 70 242 0.0 2.0 0.00 0.73 0.73 99 1014.5
20260905035137 70 236 0.0 2.0 0.00 0.73 0.73 99 1014.6
20260905034633 71 252 1.0 3.0 0.00 0.73 0.73 99 1014.7
20260905034132 71 254 2.0 2.0 0.00 0.73 0.73 99 1014.7
20260905033626 71 297 0.0 1.0 0.00 0.73 0.73 99 1014.5
20260905033122 71 246 1.0 3.0 0.00 0.73 0.73 99 1014.6
20260905032621 71 304 0.0 3.0 0.00 0.73 0.73 99 1014.7
20260905032121 71 252 1.0 3.0 0.00 0.73 0.73 98 1014.7
20260905031617 71 255 2.0 3.0 0.00 0.73 0.73 98 1014.7
20260905031112 71 253 2.0 3.0 0.00 0.73 0.73 98 1014.8
20260905030607 71 266 2.0 3.0 0.00 0.73 0.73 97 1014.6
20260905025557 71 252 2.0 2.0 0.00 0.73 0.73 97 1014.6
20260905025053 72 252 0.0 2.0 0.00 0.73 0.73 96 1014.4
20260905024548 72 258 2.0 3.0 0.00 0.73 0.73 96 1014.8
20260905024044 72 258 1.0 3.0 0.00 0.73 0.73 96 1014.7
20260905023539 72 260 2.0 2.0 0.00 0.73 0.73 95 1014.7
20260905023038 72 297 0.0 2.0 0.00 0.73 0.73 95 1014.9
20260905022532 72 269 0.0 2.0 0.00 0.73 0.73 95 1014.8
20260905022028 72 256 0.0 2.0 0.00 0.73 0.73 95 1014.7
20260905021528 72 332 1.0 2.0 0.00 0.73 0.73 94 1014.7
20260905021023 72 331 1.0 2.0 0.00 0.73 0.73 94 1014.7
20260905020522 72 335 2.0 3.0 0.00 0.73 0.73 95 1014.6
20260905020018 72 322 0.0 1.0 0.00 0.73 0.73 95 1014.7
20260905015515 72 278 1.0 2.0 0.00 0.73 0.73 94 1014.7
20260905015016 73 282 0.0 2.0 0.00 0.73 0.73 94 1014.9
20260905014511 72 331 2.0 2.0 0.00 0.73 0.73 94 1014.7
20260905014006 71 338 2.0 2.0 0.00 0.73 0.73 96 1014.8
20260905013502 71 279 0.0 1.0 0.00 0.73 0.73 96 1014.7
20260905012957 72 242 0.0 2.0 0.00 0.73 0.73 96 1014.6
20260905012451 72 312 1.0 2.0 0.00 0.73 0.73 96 1014.6
20260905011943 72 337 0.0 2.0 0.00 0.73 0.73 96 1014.7
20260905011439 72 269 0.0 0.0 0.00 0.73 0.73 96 1014.6
20260905010934 72 89 0.0 0.0 0.00 0.73 0.73 95 1014.4
20260905010429 72 89 0.0 0.0 0.00 0.73 0.73 94 1014.3
20260905005925 73 89 0.0 1.0 0.00 0.73 0.73 94 1014.4
20260905005421 73 351 0.0 0.0 0.00 0.73 0.73 93 1014.5
20260905004920 73 329 1.0 2.0 0.00 0.73 0.73 93 1014.5
20260905004416 73 269 0.0 0.0 0.00 0.73 0.73 93 1014.4
20260905003911 73 297 0.0 1.0 0.00 0.73 0.73 92 1014.5
20260905003406 74 258 0.0 2.0 0.00 0.73 0.73 91 1014.6
20260905002902 74 328 2.0 2.0 0.00 0.73 0.73 90 1014.4
20260905002355 74 354 0.0 3.0 0.00 0.73 0.73 90 1014.4
20260905001845 74 344 2.0 3.0 0.00 0.73 0.73 90 1014.6
20260905001344 74 340 2.0 3.0 0.00 0.73 0.73 90 1014.6
20260905000839 74 346 1.0 3.0 0.00 0.73 0.73 90 1014.6
20260905000335 75 347 0.0 3.0 0.00 0.73 0.73 90 1014.6
20260904235831 75 347 1.0 3.0 0.00 0.73 0.73 90 1014.5
20260904235326 75 340 2.0 3.0 0.00 0.73 0.73 89 1014.6
20260904234821 75 332 2.0 3.0 0.00 0.73 0.73 89 1014.6
20260904234321 75 340 2.0 3.0 0.00 0.73 0.73 90 1014.5
20260904233817 75 331 2.0 3.0 0.00 0.73 0.73 90 1014.5
20260904233312 75 338 2.0 3.0 0.00 0.73 0.73 89 1014.6
20260904232809 75 344 0.0 2.0 0.00 0.73 0.73 89 1014.5
20260904232307 75 7 0.0 0.0 0.00 0.73 0.73 88 1014.4
20260904231801 76 322 0.0 1.0 0.00 0.73 0.73 88 1014.4
20260904231255 76 322 0.0 1.0 0.00 0.73 0.73 87 1014.4
20260904230750 76 299 0.0 1.0 0.00 0.73 0.73 86 1014.4
20260904230244 76 284 0.0 2.0 0.00 0.73 0.73 86 1014.4
20260904225744 76 306 0.0 2.0 0.00 0.73 0.73 86 1014.3
20260904225238 76 217 0.0 0.0 0.00 0.73 0.73 86 1014.0
20260904224737 76 333 0.0 3.0 0.00 0.73 0.73 85 1014.3
20260904224233 77 259 3.0 3.0 0.00 0.73 0.73 84 1014.3
20260904223732 77 273 2.0 2.0 0.00 0.73 0.73 84 1014.3
20260904223227 77 278 2.0 4.0 0.00 0.73 0.73 84 1014.3
20260904222723 77 286 0.0 2.0 0.00 0.73 0.73 83 1014.3
20260904222218 78 284 1.0 5.0 0.00 0.73 0.73 83 1014.2
20260904221718 78 322 0.0 4.0 0.00 0.73 0.73 82 1014.0
20260904221213 79 315 0.0 3.0 0.00 0.73 0.73 79 1014.2
20260904220707 79 255 0.0 3.0 0.00 0.73 0.73 79 1013.9
20260904220202 79 262 1.0 3.0 0.00 0.73 0.73 78 1014.0
20260904215656 80 247 0.0 2.0 0.00 0.73 0.73 76 1013.9
20260904215153 80 284 0.0 3.0 0.00 0.73 0.73 76 1013.8
20260904214652 79 322 0.0 3.0 0.00 0.73 0.73 76 1013.9
20260904214148 80 281 0.0 2.0 0.00 0.73 0.73 78 1013.9
20260904213646 79 222 2.0 3.0 0.00 0.73 0.73 76 1014.0
20260904213143 80 321 0.0 3.0 0.00 0.73 0.73 78 1013.8
20260904212638 79 243 3.0 3.0 0.00 0.73 0.73 77 1013.9
20260904212133 79 255 0.0 5.0 0.00 0.73 0.73 78 1013.9
20260904211632 80 261 2.0 6.0 0.00 0.73 0.73 76 1013.8
20260904211127 80 247 2.0 5.0 0.00 0.73 0.73 75 1013.9
20260904210622 81 250 3.0 4.0 0.00 0.73 0.73 77 1013.8
20260904210118 81 259 2.0 3.0 0.00 0.73 0.73 76 1013.9
20260904205613 79 338 1.0 2.0 0.00 0.73 0.73 79 1014.2
20260904205109 79 315 0.0 2.0 0.00 0.73 0.73 79 1014.3
20260904204605 80 324 1.0 2.0 0.00 0.73 0.73 80 1014.0
20260904204101 79 262 3.0 4.0 0.00 0.73 0.73 79 1014.4
20260904203556 79 275 2.0 3.0 0.00 0.73 0.73 81 1014.5
20260904203053 79 113 0.0 0.0 0.00 0.73 0.73 83 1014.4
20260904202548 79 332 0.0 1.0 0.00 0.73 0.73 82 1014.7
20260904202044 79 330 1.0 2.0 0.00 0.73 0.73 82 1014.8
20260904201539 79 246 2.0 3.0 0.00 0.73 0.73 84 1014.6
20260904201034 77 322 0.0 2.0 0.00 0.73 0.73 84 1014.7
20260904200533 77 327 1.0 2.0 0.00 0.73 0.73 84 1014.8
20260904200029 78 228 0.0 2.0 0.00 0.73 0.73 82 1014.3
20260904195527 78 220 1.0 4.0 0.00 0.73 0.73 81 1014.6
20260904195026 78 255 0.0 2.0 0.00 0.73 0.73 83 1014.2
20260904194521 78 15 0.0 1.0 0.00 0.73 0.73 83 1014.0
20260904194016 77 351 0.0 1.0 0.00 0.73 0.73 84 1014.5
20260904193511 77 283 0.0 2.0 0.00 0.73 0.73 85 1014.8
20260904193007 78 336 2.0 4.0 0.00 0.73 0.73 84 1015.1
20260904192506 77 230 2.0 4.0 0.00 0.73 0.73 84 1015.5
20260904191957 77 340 5.0 7.0 0.00 0.73 0.73 85 1015.5
20260904191453 77 304 2.0 5.0 0.00 0.73 0.73 85 1016.0
20260904190950 78 300 2.0 3.0 0.00 0.73 0.73 86 1016.2
20260904190445 77 258 1.0 3.0 0.00 0.73 0.73 87 1015.9
20260904185941 76 340 2.0 4.0 0.00 0.73 0.73 88 1015.8
20260904185437 77 338 3.0 4.0 0.00 0.73 0.73 89 1015.8
20260904184937 77 249 0.0 2.0 0.00 0.73 0.73 88 1015.9
20260904184431 76 263 2.0 3.0 0.00 0.73 0.73 90 1016.0
20260904183927 77 324 1.0 3.0 0.00 0.73 0.73 89 1016.0
20260904183422 77 269 2.0 3.0 0.00 0.73 0.73 90 1016.0
20260904182917 77 243 2.0 3.0 0.00 0.73 0.73 90 1016.0
20260904182413 78 275 1.0 3.0 0.00 0.73 0.73 89 1015.7
20260904181907 77 9 1.0 4.0 0.00 0.73 0.73 90 1015.7
20260904181402 77 25 0.0 2.0 0.00 0.73 0.73 91 1016.1
20260904180857 75 273 2.0 3.0 0.00 0.73 0.73 91 1015.8
20260904180353 75 336 3.0 5.0 0.00 0.73 0.73 91 1015.8
20260904175852 75 279 0.0 3.0 0.00 0.73 0.73 91 1016.0
20260904175350 76 337 2.0 4.0 0.00 0.73 0.73 91 1015.9
20260904174845 75 336 0.0 1.0 0.00 0.73 0.73 92 1015.9
20260904174341 75 4 1.0 1.0 0.00 0.73 0.73 93 1016.2
20260904173837 74 25 0.0 2.0 0.00 0.73 0.73 94 1016.1
20260904173332 75 351 0.0 2.0 0.00 0.73 0.73 95 1016.0
20260904172828 75 331 0.0 2.0 0.00 0.73 0.73 96 1016.0
20260904172327 75 101 1.0 2.0 0.00 0.73 0.73 97 1016.0
20260904171822 74 117 0.0 2.0 0.00 0.73 0.73 98 1016.0
20260904171317 73 129 0.0 3.0 0.00 0.73 0.73 99 1016.1
20260904170814 72 0 1.0 2.0 0.00 0.73 0.73 99 1016.4
20260904170309 72 0 2.0 2.0 0.00 0.73 0.73 99 1016.6
20260904165808 72 6 0.0 1.0 0.00 0.73 0.73 99 1016.8
20260904165305 72 62 0.0 0.0 0.00 0.73 0.73 99 1016.6
20260904164756 72 322 0.0 1.0 0.00 0.73 0.73 99 1016.7
20260904164252 72 348 0.0 1.0 0.00 0.73 0.73 99 1016.6
20260904163748 72 13 0.0 1.0 0.00 0.73 0.73 99 1016.5
20260904163243 72 289 1.0 2.0 0.00 0.73 0.73 99 1017.0
20260904162742 71 89 0.0 3.0 0.00 0.73 0.73 99 1016.6
20260904162237 71 356 1.0 4.0 0.00 0.73 0.73 99 1017.0
20260904161733 71 338 0.0 2.0 0.00 0.73 0.73 99 1017.2
20260904161233 72 350 0.0 2.0 0.00 0.73 0.73 99 1017.1
20260904160728 71 218 0.0 4.0 0.00 0.73 0.73 99 1017.5
20260904160224 71 283 0.0 3.0 0.00 0.73 0.73 99 1017.4
20260904155724 72 269 0.0 2.0 0.00 0.73 0.73 99 1017.5
20260904155223 71 269 0.0 1.0 0.00 0.73 0.73 99 1017.3
20260904154722 71 25 0.0 2.0 0.00 0.73 0.73 99 1017.5
20260904154216 71 251 2.0 2.0 0.00 0.73 0.73 99 1017.8
20260904153712 71 238 1.0 3.0 0.07 0.73 0.73 99 1017.7
20260904153207 71 315 1.0 4.0 0.07 0.73 0.73 99 1017.9
20260904152703 71 326 3.0 5.0 0.00 0.72 0.72 99 1017.9
20260904152159 72 336 1.0 3.0 0.00 0.72 0.72 99 1017.6
20260904151654 72 278 1.0 3.0 0.00 0.72 0.72 99 1017.5
20260904151152 72 311 0.0 5.0 0.00 0.72 0.72 99 1017.2
20260904150648 71 309 0.0 1.0 0.00 0.72 0.72 99 1016.8
20260904150144 72 7 0.0 0.0 0.00 0.72 0.72 99 1016.6
20260904145642 71 333 0.0 0.0 0.00 0.72 0.72 99 1016.8
20260904145137 72 329 0.0 0.0 0.00 0.72 0.72 99 1016.8
20260904144632 71 344 0.0 2.0 0.00 0.72 0.72 99 1016.7
20260904144128 70 351 0.0 2.0 0.00 0.72 0.72 99 1016.7
20260904143624 70 322 0.0 1.0 0.00 0.72 0.72 99 1016.7
20260904143120 70 351 0.0 1.0 0.00 0.72 0.72 99 1016.6
20260904142617 69 230 0.0 2.0 0.00 0.72 0.72 99 1016.5
20260904142112 70 240 0.0 1.0 0.00 0.72 0.72 99 1016.5
20260904141607 70 237 2.0 3.0 0.00 0.72 0.72 99 1016.4
20260904141103 70 79 1.0 2.0 0.00 0.72 0.72 99 1016.3
20260904140557 69 284 0.0 2.0 0.00 0.72 0.72 99 1016.4
20260904140052 69 118 0.0 1.0 0.00 0.72 0.72 99 1016.2
20260904135550 69 50 0.0 1.0 0.00 0.72 0.72 99 1016.3
20260904135047 69 252 1.0 2.0 0.00 0.72 0.72 99 1016.3
20260904134542 69 109 0.0 2.0 0.00 0.72 0.72 99 1016.3
20260904134036 69 253 0.0 2.0 0.00 0.72 0.72 99 1016.5
20260904133531 69 269 0.0 0.0 0.00 0.72 0.72 99 1016.6
20260904133028 69 110 1.0 3.0 0.00 0.72 0.72 99 1016.5
20260904132522 69 235 0.0 0.0 0.00 0.72 0.72 99 1016.5
20260904132021 69 230 0.0 1.0 0.00 0.72 0.72 99 1016.7
20260904131516 69 230 0.0 1.0 0.00 0.72 0.72 99 1016.5
20260904131012 69 75 0.0 1.0 0.00 0.72 0.72 99 1016.4
20260904130511 69 333 0.0 1.0 0.00 0.72 0.72 99 1016.4
20260904130006 69 93 1.0 2.0 0.00 0.72 0.72 99 1016.7